owner,sensor,date,latitude,longitude,vertical_datum,sea_water_temperature,qcFlag 
TCOON,ioos:station:TCOON:043:1,2019-09-01T18:30:00Z,27.8838,-97.5332,0.0,30.4,11111222 
TCOON,ioos:station:TCOON:043:1,2019-09-08T03:30:00Z,27.8838,-97.5332,0.0,30.8,11111222 
TCOON,ioos:station:TCOON:043:1,2019-09-08T04:30:00Z,27.8838,-97.5332,0.0,30.3,11111222 
TCOON,ioos:station:TCOON:043:1,2019-09-08T05:30:00Z,27.8838,-97.5332,0.0,29.8,11111222 
TCOON,ioos:station:TCOON:043:1,2019-09-08T06:30:00Z,27.8838,-97.5332,0.0,29.4,11111222 
TCOON,ioos:station:TCOON:043:1,2019-09-08T07:30:00Z,27.8838,-97.5332,0.0,29.0,11111222 
TCOON,ioos:station:TCOON:043:1,2019-09-08T08:30:00Z,27.8838,-97.5332,0.0,28.9,11111222 
TCOON,ioos:station:TCOON:043:1,2019-09-08T09:30:00Z,27.8838,-97.5332,0.0,28.8,11111222 
TCOON,ioos:station:TCOON:043:1,2019-09-09T01:00:00Z,27.8838,-97.5332,0.0,30.4,11111222 
TCOON,ioos:station:TCOON:043:1,2019-09-09T01:30:00Z,27.8838,-97.5332,0.0,30.1,11111222 
TCOON,ioos:station:TCOON:043:1,2019-09-09T02:30:00Z,27.8838,-97.5332,0.0,30.1,11111222 
TCOON,ioos:station:TCOON:043:1,2019-09-09T03:30:00Z,27.8838,-97.5332,0.0,29.9,11111222 
TCOON,ioos:station:TCOON:043:1,2019-09-09T04:30:00Z,27.8838,-97.5332,0.0,29.4,11111222 
TCOON,ioos:station:TCOON:043:1,2019-09-09T05:30:00Z,27.8838,-97.5332,0.0,29.0,11111222 
TCOON,ioos:station:TCOON:043:1,2019-09-09T06:30:00Z,27.8838,-97.5332,0.0,28.6,11111222 
TCOON,ioos:station:TCOON:043:1,2019-09-09T15:30:00Z,27.8838,-97.5332,0.0,28.0,11111222 
TCOON,ioos:station:TCOON:043:1,2019-09-18T18:30:00Z,27.8838,-97.5332,0.0,30.4,11111222 
TCOON,ioos:station:TCOON:043:1,2019-09-18T19:30:00Z,27.8838,-97.5332,0.0,31.2,11111222 
TCOON,ioos:station:TCOON:043:1,2019-09-18T20:30:00Z,27.8838,-97.5332,0.0,31.8,11111222 
TCOON,ioos:station:TCOON:043:1,2019-09-18T21:30:00Z,27.8838,-97.5332,0.0,32.2,11111222 
TCOON,ioos:station:TCOON:043:1,2019-09-18T22:30:00Z,27.8838,-97.5332,0.0,32.3,11111222 
TCOON,ioos:station:TCOON:043:1,2019-09-18T23:30:00Z,27.8838,-97.5332,0.0,32.1,11111222 
TCOON,ioos:station:TCOON:043:1,2019-09-19T00:30:00Z,27.8838,-97.5332,0.0,31.7,11111222 
TCOON,ioos:station:TCOON:043:1,2019-09-19T01:30:00Z,27.8838,-97.5332,0.0,31.3,11111222 
TCOON,ioos:station:TCOON:043:1,2019-09-19T02:30:00Z,27.8838,-97.5332,0.0,30.8,11111222 
TCOON,ioos:station:TCOON:043:1,2019-09-19T03:30:00Z,27.8838,-97.5332,0.0,30.5,11111222 
TCOON,ioos:station:TCOON:043:1,2019-09-19T04:30:00Z,27.8838,-97.5332,0.0,30.1,11111222 
TCOON,ioos:station:TCOON:043:1,2019-09-19T05:30:00Z,27.8838,-97.5332,0.0,29.8,11111222 
TCOON,ioos:station:TCOON:043:1,2019-09-19T06:30:00Z,27.8838,-97.5332,0.0,29.5,11111222 
TCOON,ioos:station:TCOON:043:1,2019-09-19T07:30:00Z,27.8838,-97.5332,0.0,29.3,11111222 
TCOON,ioos:station:TCOON:043:1,2019-09-19T08:30:00Z,27.8838,-97.5332,0.0,29.1,11111222 
TCOON,ioos:station:TCOON:043:1,2019-09-19T09:30:00Z,27.8838,-97.5332,0.0,28.9,11111222 
TCOON,ioos:station:TCOON:043:1,2019-09-19T10:30:00Z,27.8838,-97.5332,0.0,28.7,11111222 
TCOON,ioos:station:TCOON:043:1,2019-09-19T11:30:00Z,27.8838,-97.5332,0.0,28.5,11111222 
TCOON,ioos:station:TCOON:043:1,2019-09-19T12:30:00Z,27.8838,-97.5332,0.0,28.3,11111222 
TCOON,ioos:station:TCOON:043:1,2019-09-19T13:30:00Z,27.8838,-97.5332,0.0,28.2,11111222 
TCOON,ioos:station:TCOON:043:1,2019-09-19T14:30:00Z,27.8838,-97.5332,0.0,28.3,11111222 
TCOON,ioos:station:TCOON:043:1,2019-09-19T15:30:00Z,27.8838,-97.5332,0.0,28.6,11111222 
TCOON,ioos:station:TCOON:043:1,2019-09-19T16:30:00Z,27.8838,-97.5332,0.0,29.0,11111222 
TCOON,ioos:station:TCOON:043:1,2019-09-19T17:30:00Z,27.8838,-97.5332,0.0,29.5,11111222 
TCOON,ioos:station:TCOON:043:1,2019-09-19T18:30:00Z,27.8838,-97.5332,0.0,30.3,11111222 
TCOON,ioos:station:TCOON:043:1,2019-09-19T19:30:00Z,27.8838,-97.5332,0.0,30.9,11111222 
TCOON,ioos:station:TCOON:043:1,2019-09-19T20:30:00Z,27.8838,-97.5332,0.0,31.3,11111222 
TCOON,ioos:station:TCOON:043:1,2019-09-19T21:30:00Z,27.8838,-97.5332,0.0,31.6,11111222 
TCOON,ioos:station:TCOON:043:1,2019-09-19T22:30:00Z,27.8838,-97.5332,0.0,31.6,11111222 
TCOON,ioos:station:TCOON:043:1,2019-09-19T23:30:00Z,27.8838,-97.5332,0.0,31.4,11111222 
TCOON,ioos:station:TCOON:043:1,2019-09-20T00:30:00Z,27.8838,-97.5332,0.0,31.1,11111222 
TCOON,ioos:station:TCOON:043:1,2019-09-20T01:30:00Z,27.8838,-97.5332,0.0,30.8,11111222 
TCOON,ioos:station:TCOON:043:1,2019-09-20T02:30:00Z,27.8838,-97.5332,0.0,30.5,11111222 
TCOON,ioos:station:TCOON:043:1,2019-09-20T03:30:00Z,27.8838,-97.5332,0.0,30.2,11111222 
TCOON,ioos:station:TCOON:043:1,2019-09-20T04:30:00Z,27.8838,-97.5332,0.0,29.8,11111222 
TCOON,ioos:station:TCOON:043:1,2019-09-20T06:00:00Z,27.8838,-97.5332,0.0,29.5,11111222 
TCOON,ioos:station:TCOON:043:1,2019-09-20T06:30:00Z,27.8838,-97.5332,0.0,29.5,11111222 
TCOON,ioos:station:TCOON:043:1,2019-09-20T07:30:00Z,27.8838,-97.5332,0.0,29.4,11111222 
TCOON,ioos:station:TCOON:043:1,2019-09-20T08:30:00Z,27.8838,-97.5332,0.0,29.0,11111222 
TCOON,ioos:station:TCOON:043:1,2019-09-20T09:30:00Z,27.8838,-97.5332,0.0,28.9,11111222 
TCOON,ioos:station:TCOON:043:1,2019-09-20T10:30:00Z,27.8838,-97.5332,0.0,28.7,11111222 
TCOON,ioos:station:TCOON:043:1,2019-09-20T11:30:00Z,27.8838,-97.5332,0.0,28.2,11111222 
TCOON,ioos:station:TCOON:043:1,2019-09-20T12:30:00Z,27.8838,-97.5332,0.0,27.9,11111222 
TCOON,ioos:station:TCOON:043:1,2019-09-20T13:30:00Z,27.8838,-97.5332,0.0,27.8,11111222 
TCOON,ioos:station:TCOON:043:1,2019-09-20T14:30:00Z,27.8838,-97.5332,0.0,27.8,11111222 
TCOON,ioos:station:TCOON:043:1,2019-09-20T15:30:00Z,27.8838,-97.5332,0.0,28.1,11111222 
TCOON,ioos:station:TCOON:043:1,2019-09-20T16:30:00Z,27.8838,-97.5332,0.0,28.6,11111222 
TCOON,ioos:station:TCOON:043:1,2019-09-20T17:30:00Z,27.8838,-97.5332,0.0,28.7,11111222 
TCOON,ioos:station:TCOON:043:1,2019-09-20T18:30:00Z,27.8838,-97.5332,0.0,29.0,11111222 
TCOON,ioos:station:TCOON:043:1,2019-09-20T19:30:00Z,27.8838,-97.5332,0.0,29.1,11111222 
TCOON,ioos:station:TCOON:043:1,2019-09-20T20:30:00Z,27.8838,-97.5332,0.0,29.8,11111222 
TCOON,ioos:station:TCOON:043:1,2019-09-20T21:30:00Z,27.8838,-97.5332,0.0,30.0,11111222 
TCOON,ioos:station:TCOON:043:1,2019-09-20T22:30:00Z,27.8838,-97.5332,0.0,30.0,11111222 
TCOON,ioos:station:TCOON:043:1,2019-09-20T23:30:00Z,27.8838,-97.5332,0.0,29.8,11111222 
TCOON,ioos:station:TCOON:043:1,2019-09-21T00:30:00Z,27.8838,-97.5332,0.0,29.5,11111222 
TCOON,ioos:station:TCOON:043:1,2019-09-21T01:30:00Z,27.8838,-97.5332,0.0,29.4,11111222 
TCOON,ioos:station:TCOON:043:1,2019-09-21T02:30:00Z,27.8838,-97.5332,0.0,29.1,11111222 
TCOON,ioos:station:TCOON:043:1,2019-09-21T03:30:00Z,27.8838,-97.5332,0.0,29.0,11111222 
TCOON,ioos:station:TCOON:043:1,2019-09-21T04:30:00Z,27.8838,-97.5332,0.0,28.8,11111222 
TCOON,ioos:station:TCOON:043:1,2019-09-21T05:30:00Z,27.8838,-97.5332,0.0,28.6,11111222 
TCOON,ioos:station:TCOON:043:1,2019-09-21T06:30:00Z,27.8838,-97.5332,0.0,28.4,11111222 
TCOON,ioos:station:TCOON:043:1,2019-09-21T07:30:00Z,27.8838,-97.5332,0.0,28.3,11111222 
TCOON,ioos:station:TCOON:043:1,2019-09-21T08:30:00Z,27.8838,-97.5332,0.0,28.1,11111222 
TCOON,ioos:station:TCOON:043:1,2019-09-21T09:30:00Z,27.8838,-97.5332,0.0,28.0,11111222 
TCOON,ioos:station:TCOON:043:1,2019-09-21T10:30:00Z,27.8838,-97.5332,0.0,28.1,11111222 
TCOON,ioos:station:TCOON:043:1,2019-09-21T11:30:00Z,27.8838,-97.5332,0.0,28.0,11111222 
TCOON,ioos:station:TCOON:043:1,2019-09-21T12:30:00Z,27.8838,-97.5332,0.0,27.4,11111222 
TCOON,ioos:station:TCOON:043:1,2019-09-21T13:30:00Z,27.8838,-97.5332,0.0,27.5,11111222 
TCOON,ioos:station:TCOON:043:1,2019-09-21T14:30:00Z,27.8838,-97.5332,0.0,27.6,11111222 
TCOON,ioos:station:TCOON:043:1,2019-09-21T15:30:00Z,27.8838,-97.5332,0.0,28.0,11111222 
TCOON,ioos:station:TCOON:043:1,2019-09-21T16:30:00Z,27.8838,-97.5332,0.0,28.6,11111222 
TCOON,ioos:station:TCOON:043:1,2019-09-21T17:30:00Z,27.8838,-97.5332,0.0,29.2,11111222 
TCOON,ioos:station:TCOON:043:1,2019-09-21T18:30:00Z,27.8838,-97.5332,0.0,29.9,11111222 
TCOON,ioos:station:TCOON:043:1,2019-09-21T19:30:00Z,27.8838,-97.5332,0.0,30.5,11111222 
TCOON,ioos:station:TCOON:043:1,2019-09-21T20:30:00Z,27.8838,-97.5332,0.0,30.9,11111222 
TCOON,ioos:station:TCOON:043:1,2019-09-21T21:30:00Z,27.8838,-97.5332,0.0,31.3,11111222 
TCOON,ioos:station:TCOON:043:1,2019-09-21T22:30:00Z,27.8838,-97.5332,0.0,31.4,11111222 
TCOON,ioos:station:TCOON:043:1,2019-09-21T23:30:00Z,27.8838,-97.5332,0.0,31.1,11111222 
TCOON,ioos:station:TCOON:043:1,2019-09-22T00:30:00Z,27.8838,-97.5332,0.0,30.9,11111222 
TCOON,ioos:station:TCOON:043:1,2019-09-22T01:30:00Z,27.8838,-97.5332,0.0,30.5,11111222 
TCOON,ioos:station:TCOON:043:1,2019-09-22T02:30:00Z,27.8838,-97.5332,0.0,30.0,11111222 
TCOON,ioos:station:TCOON:043:1,2019-09-22T03:30:00Z,27.8838,-97.5332,0.0,29.8,11111222 
TCOON,ioos:station:TCOON:043:1,2019-09-22T04:30:00Z,27.8838,-97.5332,0.0,29.5,11111222 
TCOON,ioos:station:TCOON:043:1,2019-09-22T05:30:00Z,27.8838,-97.5332,0.0,29.8,11111222 
TCOON,ioos:station:TCOON:043:1,2019-09-22T06:30:00Z,27.8838,-97.5332,0.0,29.5,11111222 
TCOON,ioos:station:TCOON:043:1,2019-09-22T07:30:00Z,27.8838,-97.5332,0.0,29.1,11111222 
TCOON,ioos:station:TCOON:043:1,2019-09-22T08:30:00Z,27.8838,-97.5332,0.0,28.5,11111222 
TCOON,ioos:station:TCOON:043:1,2019-09-22T09:30:00Z,27.8838,-97.5332,0.0,28.3,11111222 
TCOON,ioos:station:TCOON:043:1,2019-09-22T10:30:00Z,27.8838,-97.5332,0.0,28.2,11111222 
TCOON,ioos:station:TCOON:043:1,2019-09-22T11:30:00Z,27.8838,-97.5332,0.0,28.0,11111222 
TCOON,ioos:station:TCOON:043:1,2019-09-22T12:30:00Z,27.8838,-97.5332,0.0,27.8,11111222 
TCOON,ioos:station:TCOON:043:1,2019-09-22T13:30:00Z,27.8838,-97.5332,0.0,27.7,11111222 
TCOON,ioos:station:TCOON:043:1,2019-09-22T14:30:00Z,27.8838,-97.5332,0.0,27.8,11111222 
TCOON,ioos:station:TCOON:043:1,2019-09-22T15:30:00Z,27.8838,-97.5332,0.0,27.9,11111222 
TCOON,ioos:station:TCOON:043:1,2019-09-22T16:30:00Z,27.8838,-97.5332,0.0,28.1,11111222 
TCOON,ioos:station:TCOON:043:1,2019-09-22T17:30:00Z,27.8838,-97.5332,0.0,28.7,11111222 
TCOON,ioos:station:TCOON:043:1,2019-09-22T18:30:00Z,27.8838,-97.5332,0.0,29.4,11111222 
TCOON,ioos:station:TCOON:043:1,2019-09-22T19:30:00Z,27.8838,-97.5332,0.0,29.7,11111222 
TCOON,ioos:station:TCOON:043:1,2019-09-22T20:30:00Z,27.8838,-97.5332,0.0,31.2,11111222 
TCOON,ioos:station:TCOON:043:1,2019-09-22T21:30:00Z,27.8838,-97.5332,0.0,31.5,11111222 
TCOON,ioos:station:TCOON:043:1,2019-09-22T22:30:00Z,27.8838,-97.5332,0.0,31.5,11111222 
TCOON,ioos:station:TCOON:043:1,2019-09-22T23:30:00Z,27.8838,-97.5332,0.0,31.2,11111222 
TCOON,ioos:station:TCOON:043:1,2019-09-23T00:30:00Z,27.8838,-97.5332,0.0,31.4,11111222 
TCOON,ioos:station:TCOON:043:1,2019-09-23T01:30:00Z,27.8838,-97.5332,0.0,31.0,11111222 
TCOON,ioos:station:TCOON:043:1,2019-09-23T02:30:00Z,27.8838,-97.5332,0.0,30.4,11111222 
TCOON,ioos:station:TCOON:043:1,2019-09-23T03:30:00Z,27.8838,-97.5332,0.0,30.0,11111222 
TCOON,ioos:station:TCOON:043:1,2019-09-23T04:30:00Z,27.8838,-97.5332,0.0,29.7,11111222 
TCOON,ioos:station:TCOON:043:1,2019-09-23T05:30:00Z,27.8838,-97.5332,0.0,29.4,11111222 
TCOON,ioos:station:TCOON:043:1,2019-09-23T06:30:00Z,27.8838,-97.5332,0.0,29.2,11111222 
TCOON,ioos:station:TCOON:043:1,2019-09-23T07:30:00Z,27.8838,-97.5332,0.0,29.1,11111222 
TCOON,ioos:station:TCOON:043:1,2019-09-23T08:30:00Z,27.8838,-97.5332,0.0,28.9,11111222 
TCOON,ioos:station:TCOON:043:1,2019-09-23T09:30:00Z,27.8838,-97.5332,0.0,28.9,11111222 
TCOON,ioos:station:TCOON:043:1,2019-09-23T10:30:00Z,27.8838,-97.5332,0.0,28.8,11111222 
TCOON,ioos:station:TCOON:043:1,2019-09-23T11:30:00Z,27.8838,-97.5332,0.0,28.6,11111222 
TCOON,ioos:station:TCOON:043:1,2019-09-23T12:30:00Z,27.8838,-97.5332,0.0,28.5,11111222 
TCOON,ioos:station:TCOON:043:1,2019-09-23T13:30:00Z,27.8838,-97.5332,0.0,28.5,11111222 
TCOON,ioos:station:TCOON:043:1,2019-09-23T14:30:00Z,27.8838,-97.5332,0.0,28.6,11111222 
TCOON,ioos:station:TCOON:043:1,2019-09-23T15:30:00Z,27.8838,-97.5332,0.0,28.7,11111222 
TCOON,ioos:station:TCOON:043:1,2019-09-23T16:30:00Z,27.8838,-97.5332,0.0,28.8,11111222 
TCOON,ioos:station:TCOON:043:1,2019-09-23T17:30:00Z,27.8838,-97.5332,0.0,29.0,11111222 
TCOON,ioos:station:TCOON:043:1,2019-09-23T18:30:00Z,27.8838,-97.5332,0.0,29.6,11111222 
TCOON,ioos:station:TCOON:043:1,2019-09-23T19:30:00Z,27.8838,-97.5332,0.0,30.0,11111222 
TCOON,ioos:station:TCOON:043:1,2019-09-23T20:30:00Z,27.8838,-97.5332,0.0,31.6,11111222 
TCOON,ioos:station:TCOON:043:1,2019-09-23T21:30:00Z,27.8838,-97.5332,0.0,32.2,11111222 
TCOON,ioos:station:TCOON:043:1,2019-09-23T22:30:00Z,27.8838,-97.5332,0.0,32.1,11111222 
TCOON,ioos:station:TCOON:043:1,2019-09-23T23:30:00Z,27.8838,-97.5332,0.0,32.0,11111222 
TCOON,ioos:station:TCOON:043:1,2019-09-24T00:30:00Z,27.8838,-97.5332,0.0,31.4,11111222 
TCOON,ioos:station:TCOON:043:1,2019-09-24T01:30:00Z,27.8838,-97.5332,0.0,30.9,11111222 
TCOON,ioos:station:TCOON:043:1,2019-09-24T02:30:00Z,27.8838,-97.5332,0.0,30.4,11111222 
TCOON,ioos:station:TCOON:043:1,2019-09-24T03:30:00Z,27.8838,-97.5332,0.0,30.0,11111222 
TCOON,ioos:station:TCOON:043:1,2019-09-24T04:30:00Z,27.8838,-97.5332,0.0,29.8,11111222 
TCOON,ioos:station:TCOON:043:1,2019-09-24T05:30:00Z,27.8838,-97.5332,0.0,29.6,11111222 
TCOON,ioos:station:TCOON:043:1,2019-09-24T06:30:00Z,27.8838,-97.5332,0.0,29.4,11111222 
TCOON,ioos:station:TCOON:043:1,2019-09-24T07:30:00Z,27.8838,-97.5332,0.0,29.1,11111222 
TCOON,ioos:station:TCOON:043:1,2019-09-24T08:30:00Z,27.8838,-97.5332,0.0,28.9,11111222 
TCOON,ioos:station:TCOON:043:1,2019-09-24T09:30:00Z,27.8838,-97.5332,0.0,28.8,11111222 
TCOON,ioos:station:TCOON:043:1,2019-09-24T10:30:00Z,27.8838,-97.5332,0.0,28.7,11111222 
TCOON,ioos:station:TCOON:043:1,2019-09-24T11:30:00Z,27.8838,-97.5332,0.0,28.6,11111222 
TCOON,ioos:station:TCOON:043:1,2019-09-24T12:30:00Z,27.8838,-97.5332,0.0,28.6,11111222 
TCOON,ioos:station:TCOON:043:1,2019-09-24T13:30:00Z,27.8838,-97.5332,0.0,29.0,11111222 
TCOON,ioos:station:TCOON:043:1,2019-09-24T14:30:00Z,27.8838,-97.5332,0.0,28.4,11111222 
TCOON,ioos:station:TCOON:043:1,2019-09-24T15:30:00Z,27.8838,-97.5332,0.0,28.5,11111222 
TCOON,ioos:station:TCOON:043:1,2019-09-24T16:30:00Z,27.8838,-97.5332,0.0,28.6,11111222 
TCOON,ioos:station:TCOON:043:1,2019-09-24T17:30:00Z,27.8838,-97.5332,0.0,29.0,11111222 
TCOON,ioos:station:TCOON:043:1,2019-09-24T18:30:00Z,27.8838,-97.5332,0.0,29.2,11111222 
TCOON,ioos:station:TCOON:043:1,2019-09-24T19:30:00Z,27.8838,-97.5332,0.0,29.9,11111222 
TCOON,ioos:station:TCOON:043:1,2019-09-24T20:30:00Z,27.8838,-97.5332,0.0,31.3,11111222 
TCOON,ioos:station:TCOON:043:1,2019-09-24T21:30:00Z,27.8838,-97.5332,0.0,31.5,11111222 
TCOON,ioos:station:TCOON:043:1,2019-09-24T22:30:00Z,27.8838,-97.5332,0.0,31.4,11111222 
TCOON,ioos:station:TCOON:043:1,2019-09-24T23:30:00Z,27.8838,-97.5332,0.0,31.2,11111222 
TCOON,ioos:station:TCOON:043:1,2019-09-25T00:30:00Z,27.8838,-97.5332,0.0,30.6,11111222 
TCOON,ioos:station:TCOON:043:1,2019-09-25T01:30:00Z,27.8838,-97.5332,0.0,30.5,11111222 
TCOON,ioos:station:TCOON:043:1,2019-09-25T02:30:00Z,27.8838,-97.5332,0.0,29.9,11111222 
TCOON,ioos:station:TCOON:043:1,2019-09-25T03:30:00Z,27.8838,-97.5332,0.0,29.5,11111222 
TCOON,ioos:station:TCOON:043:1,2019-09-25T04:30:00Z,27.8838,-97.5332,0.0,29.1,11111222 
TCOON,ioos:station:TCOON:043:1,2019-09-25T05:30:00Z,27.8838,-97.5332,0.0,28.7,11111222 
TCOON,ioos:station:TCOON:043:1,2019-09-25T06:30:00Z,27.8838,-97.5332,0.0,28.5,11111222 
TCOON,ioos:station:TCOON:043:1,2019-09-25T07:30:00Z,27.8838,-97.5332,0.0,28.3,11111222 
TCOON,ioos:station:TCOON:043:1,2019-09-25T08:30:00Z,27.8838,-97.5332,0.0,28.1,11111222 
TCOON,ioos:station:TCOON:043:1,2019-09-25T09:30:00Z,27.8838,-97.5332,0.0,28.0,11111222 
TCOON,ioos:station:TCOON:043:1,2019-09-25T10:30:00Z,27.8838,-97.5332,0.0,27.9,11111222 
TCOON,ioos:station:TCOON:043:1,2019-09-25T11:30:00Z,27.8838,-97.5332,0.0,27.9,11111222 
TCOON,ioos:station:TCOON:043:1,2019-09-25T12:30:00Z,27.8838,-97.5332,0.0,27.8,11111222 
TCOON,ioos:station:TCOON:043:1,2019-09-25T13:30:00Z,27.8838,-97.5332,0.0,27.5,11111222 
TCOON,ioos:station:TCOON:043:1,2019-09-25T14:30:00Z,27.8838,-97.5332,0.0,28.2,11111222 
TCOON,ioos:station:TCOON:043:1,2019-09-25T15:30:00Z,27.8838,-97.5332,0.0,28.5,11111222 
TCOON,ioos:station:TCOON:043:1,2019-09-25T16:30:00Z,27.8838,-97.5332,0.0,28.7,11111222 
TCOON,ioos:station:TCOON:043:1,2019-09-25T17:30:00Z,27.8838,-97.5332,0.0,29.1,11111222 
TCOON,ioos:station:TCOON:043:1,2019-09-25T18:30:00Z,27.8838,-97.5332,0.0,29.0,11111222 
TCOON,ioos:station:TCOON:043:1,2019-09-25T19:30:00Z,27.8838,-97.5332,0.0,29.5,11111222 
TCOON,ioos:station:TCOON:043:1,2019-09-25T20:30:00Z,27.8838,-97.5332,0.0,31.7,11111222 
TCOON,ioos:station:TCOON:043:1,2019-09-25T21:30:00Z,27.8838,-97.5332,0.0,31.8,11111222 
TCOON,ioos:station:TCOON:043:1,2019-09-25T22:30:00Z,27.8838,-97.5332,0.0,31.8,11111222 
TCOON,ioos:station:TCOON:043:1,2019-09-25T23:30:00Z,27.8838,-97.5332,0.0,31.8,11111222 
TCOON,ioos:station:TCOON:043:1,2019-09-26T00:30:00Z,27.8838,-97.5332,0.0,31.4,11111222 
TCOON,ioos:station:TCOON:043:1,2019-09-26T01:30:00Z,27.8838,-97.5332,0.0,31.4,11111222 
TCOON,ioos:station:TCOON:043:1,2019-09-26T02:30:00Z,27.8838,-97.5332,0.0,30.7,11111222 
TCOON,ioos:station:TCOON:043:1,2019-09-26T03:30:00Z,27.8838,-97.5332,0.0,30.1,11111222 
TCOON,ioos:station:TCOON:043:1,2019-09-26T04:30:00Z,27.8838,-97.5332,0.0,29.7,11111222 
TCOON,ioos:station:TCOON:043:1,2019-09-26T05:30:00Z,27.8838,-97.5332,0.0,29.4,11111222 
TCOON,ioos:station:TCOON:043:1,2019-09-26T06:30:00Z,27.8838,-97.5332,0.0,28.8,11111222 
TCOON,ioos:station:TCOON:043:1,2019-09-26T07:30:00Z,27.8838,-97.5332,0.0,28.5,11111222 
TCOON,ioos:station:TCOON:043:1,2019-09-26T08:30:00Z,27.8838,-97.5332,0.0,28.4,11111222 
TCOON,ioos:station:TCOON:043:1,2019-09-26T09:30:00Z,27.8838,-97.5332,0.0,28.3,11111222 
TCOON,ioos:station:TCOON:043:1,2019-09-26T10:30:00Z,27.8838,-97.5332,0.0,28.2,11111222 
TCOON,ioos:station:TCOON:043:1,2019-09-26T11:30:00Z,27.8838,-97.5332,0.0,28.1,11111222 
TCOON,ioos:station:TCOON:043:1,2019-09-26T12:30:00Z,27.8838,-97.5332,0.0,28.0,11111222 
TCOON,ioos:station:TCOON:043:1,2019-09-26T13:30:00Z,27.8838,-97.5332,0.0,27.9,11111222 
TCOON,ioos:station:TCOON:043:1,2019-09-26T14:30:00Z,27.8838,-97.5332,0.0,28.0,11111222 
TCOON,ioos:station:TCOON:043:1,2019-09-26T15:30:00Z,27.8838,-97.5332,0.0,28.1,11111222 
TCOON,ioos:station:TCOON:043:1,2019-09-26T16:30:00Z,27.8838,-97.5332,0.0,28.4,11111222 
TCOON,ioos:station:TCOON:043:1,2019-09-26T17:30:00Z,27.8838,-97.5332,0.0,28.7,11111222 
TCOON,ioos:station:TCOON:043:1,2019-09-26T18:30:00Z,27.8838,-97.5332,0.0,28.2,11111222 
TCOON,ioos:station:TCOON:043:1,2019-09-26T19:30:00Z,27.8838,-97.5332,0.0,29.8,11111222 
TCOON,ioos:station:TCOON:043:1,2019-09-26T20:30:00Z,27.8838,-97.5332,0.0,31.4,11111222 
TCOON,ioos:station:TCOON:043:1,2019-09-26T21:30:00Z,27.8838,-97.5332,0.0,31.8,11111222 
TCOON,ioos:station:TCOON:043:1,2019-09-26T22:30:00Z,27.8838,-97.5332,0.0,31.9,11111222 
TCOON,ioos:station:TCOON:043:1,2019-09-26T23:30:00Z,27.8838,-97.5332,0.0,31.6,11111222 
TCOON,ioos:station:TCOON:043:1,2019-09-27T00:30:00Z,27.8838,-97.5332,0.0,31.2,11111222 
TCOON,ioos:station:TCOON:043:1,2019-09-27T01:30:00Z,27.8838,-97.5332,0.0,31.3,11111222 
TCOON,ioos:station:TCOON:043:1,2019-09-27T02:30:00Z,27.8838,-97.5332,0.0,30.7,11111222 
TCOON,ioos:station:TCOON:043:1,2019-09-27T03:30:00Z,27.8838,-97.5332,0.0,30.2,11111222 
TCOON,ioos:station:TCOON:043:1,2019-09-27T04:30:00Z,27.8838,-97.5332,0.0,29.6,11111222 
TCOON,ioos:station:TCOON:043:1,2019-09-27T05:30:00Z,27.8838,-97.5332,0.0,29.1,11111222 
TCOON,ioos:station:TCOON:043:1,2019-09-27T06:30:00Z,27.8838,-97.5332,0.0,28.4,11111222 
TCOON,ioos:station:TCOON:043:1,2019-09-27T07:30:00Z,27.8838,-97.5332,0.0,28.4,11111222 
TCOON,ioos:station:TCOON:043:1,2019-09-27T08:30:00Z,27.8838,-97.5332,0.0,28.3,11111222 
TCOON,ioos:station:TCOON:043:1,2019-09-27T09:30:00Z,27.8838,-97.5332,0.0,28.1,11111222 
TCOON,ioos:station:TCOON:043:1,2019-09-27T10:30:00Z,27.8838,-97.5332,0.0,27.9,11111222 
TCOON,ioos:station:TCOON:043:1,2019-09-27T11:30:00Z,27.8838,-97.5332,0.0,27.8,11111222 
TCOON,ioos:station:TCOON:043:1,2019-09-27T12:30:00Z,27.8838,-97.5332,0.0,27.7,11111222 
TCOON,ioos:station:TCOON:043:1,2019-09-27T13:30:00Z,27.8838,-97.5332,0.0,27.6,11111222 
TCOON,ioos:station:TCOON:043:1,2019-09-27T14:30:00Z,27.8838,-97.5332,0.0,27.7,11111222 
TCOON,ioos:station:TCOON:043:1,2019-09-27T15:30:00Z,27.8838,-97.5332,0.0,27.9,11111222 
TCOON,ioos:station:TCOON:043:1,2019-09-27T16:30:00Z,27.8838,-97.5332,0.0,27.4,11111222 
TCOON,ioos:station:TCOON:043:1,2019-09-27T17:30:00Z,27.8838,-97.5332,0.0,28.8,11111222 
TCOON,ioos:station:TCOON:043:1,2019-09-27T18:30:00Z,27.8838,-97.5332,0.0,29.1,11111222 
TCOON,ioos:station:TCOON:043:1,2019-09-27T19:30:00Z,27.8838,-97.5332,0.0,30.0,11111222 
TCOON,ioos:station:TCOON:043:1,2019-09-27T20:30:00Z,27.8838,-97.5332,0.0,31.3,11111222 
TCOON,ioos:station:TCOON:043:1,2019-09-27T21:30:00Z,27.8838,-97.5332,0.0,31.5,11111222 
TCOON,ioos:station:TCOON:043:1,2019-09-27T22:30:00Z,27.8838,-97.5332,0.0,31.6,11111222 
TCOON,ioos:station:TCOON:043:1,2019-09-27T23:30:00Z,27.8838,-97.5332,0.0,31.4,11111222 
TCOON,ioos:station:TCOON:043:1,2019-09-28T00:30:00Z,27.8838,-97.5332,0.0,30.9,11111222 
TCOON,ioos:station:TCOON:043:1,2019-09-28T01:30:00Z,27.8838,-97.5332,0.0,30.5,11111222 
TCOON,ioos:station:TCOON:043:1,2019-09-28T02:30:00Z,27.8838,-97.5332,0.0,30.2,11111222 
TCOON,ioos:station:TCOON:043:1,2019-09-28T03:30:00Z,27.8838,-97.5332,0.0,30.1,11111222 
TCOON,ioos:station:TCOON:043:1,2019-09-28T04:30:00Z,27.8838,-97.5332,0.0,29.4,11111222 
TCOON,ioos:station:TCOON:043:1,2019-09-28T05:30:00Z,27.8838,-97.5332,0.0,29.6,11111222 
TCOON,ioos:station:TCOON:043:1,2019-09-28T06:30:00Z,27.8838,-97.5332,0.0,29.3,11111222 
TCOON,ioos:station:TCOON:043:1,2019-09-28T07:30:00Z,27.8838,-97.5332,0.0,28.7,11111222 
TCOON,ioos:station:TCOON:043:1,2019-09-28T08:30:00Z,27.8838,-97.5332,0.0,28.5,11111222 
TCOON,ioos:station:TCOON:043:1,2019-09-28T09:30:00Z,27.8838,-97.5332,0.0,28.2,11111222 
TCOON,ioos:station:TCOON:043:1,2019-09-28T10:30:00Z,27.8838,-97.5332,0.0,28.2,11111222 
TCOON,ioos:station:TCOON:043:1,2019-09-28T11:30:00Z,27.8838,-97.5332,0.0,28.2,11111222 
TCOON,ioos:station:TCOON:043:1,2019-09-28T12:30:00Z,27.8838,-97.5332,0.0,28.1,11111222 
TCOON,ioos:station:TCOON:043:1,2019-09-28T13:30:00Z,27.8838,-97.5332,0.0,28.0,11111222 
TCOON,ioos:station:TCOON:043:1,2019-09-29T10:30:00Z,27.8838,-97.5332,0.0,28.1,11111222 
TCOON,ioos:station:TCOON:043:1,2019-09-29T11:30:00Z,27.8838,-97.5332,0.0,27.9,11111222 
TCOON,ioos:station:TCOON:043:1,2019-09-29T12:30:00Z,27.8838,-97.5332,0.0,27.6,11111222 
TCOON,ioos:station:TCOON:043:1,2019-09-29T13:30:00Z,27.8838,-97.5332,0.0,27.6,11111222 
TCOON,ioos:station:TCOON:043:1,2019-09-29T14:30:00Z,27.8838,-97.5332,0.0,27.9,11111222 
TCOON,ioos:station:TCOON:043:1,2019-09-29T15:30:00Z,27.8838,-97.5332,0.0,28.0,11111222 
TCOON,ioos:station:TCOON:043:1,2019-09-30T11:30:00Z,27.8838,-97.5332,0.0,28.2,11111222 
TCOON,ioos:station:TCOON:043:1,2019-09-30T12:30:00Z,27.8838,-97.5332,0.0,28.1,11111222 
TCOON,ioos:station:TCOON:043:1,2019-09-30T13:30:00Z,27.8838,-97.5332,0.0,28.1,11111222 
TCOON,ioos:station:TCOON:043:1,2019-09-30T14:30:00Z,27.8838,-97.5332,0.0,28.1,11111222 
TCOON,ioos:station:TCOON:043:1,2019-09-30T15:30:00Z,27.8838,-97.5332,0.0,28.3,11111222 
TCOON,ioos:station:TCOON:043:1,2019-09-30T16:30:00Z,27.8838,-97.5332,0.0,28.5,11111222 
TCOON,ioos:station:TCOON:043:1,2019-09-30T17:30:00Z,27.8838,-97.5332,0.0,28.7,11111222 
TCOON,ioos:station:TCOON:043:1,2019-09-30T18:30:00Z,27.8838,-97.5332,0.0,29.5,11111222 
TCOON,ioos:station:TCOON:043:1,2019-09-30T19:30:00Z,27.8838,-97.5332,0.0,29.8,11111222 
TCOON,ioos:station:TCOON:043:1,2019-09-30T20:30:00Z,27.8838,-97.5332,0.0,30.3,11111222 
TCOON,ioos:station:TCOON:043:1,2019-09-30T21:30:00Z,27.8838,-97.5332,0.0,30.4,11111222 
TCOON,ioos:station:TCOON:043:1,2019-09-30T22:30:00Z,27.8838,-97.5332,0.0,30.5,11111222 
TCOON,ioos:station:TCOON:043:1,2019-09-30T23:30:00Z,27.8838,-97.5332,0.0,30.4,11111222 
 